Temp_Advection
nan nan nan nan nan nan nan nan nan nan nan nan nan nan nan nan nan nan nan nan nan nan nan nan nan nan nan nan nan nan nan nan nan nan nan nan nan nan nan nan nan nan nan nan nan nan nan nan nan nan nan nan
nan 0 -0 0 0 0 0 0 0 0 0 0 0 0 0 0 0 0 0 0 0 -0 -0 -0 -0 -0 -0 -0 -0 -0 -0 -0 -0 -0 -0 -0 -0 -0 -0 -0 -0 -0 -0 -0 -0 -0 -0 -0 -0 -0 -0 nan
nan -0 0 0 0 0 0 0 0 0 0 0 0 0 0 0 0 0 0 0 0 0 -0 0 0 0 -0 -0 -0 -0 -0 -0 -0 -0 -0 -0 -0 -0 -0 -0 -0 -0 -0 -0 -0 -0 -0 -0 -0 -0 -0 nan
nan 0 0 0 0 0 0 0 0 0 0 0 0 0 0 0 0 0 0 0 0 0 0 0 -0 -0 -0 -0 -0 -0 -0 -0 -0 -0 -0 -0 -0 -0 -0 -0 -0 -0 -0 -0 -0 -0 -0 -0 -0 -0 -0 nan
nan 0 0 0 0 0 0 0 0 0 0 0 0 0 0 0 0 0 0 0 0 0 0 0 -0 -0 -0 -0 -0 -0 -0 -0 -0 -0 0 0 -0 -0 -0 -0 -0 -0 -0 -0 -0 -0 -0 0 0 -0 -0 nan
nan 0 0 0 0 0 0 0 0 0 0 0 0 0 0 0 0 0 0 0 0 0 0 0 -0 -0 -0 -0 -0 -0 -0 -0 -0 -0 -0 -0 -0 -0 -0 -0 -0 -0 -0 -0 -0 -0 -0 -0 -0 -0 -0 nan
nan 0 0 0 0 0 0 0 0 0 0 0 0 0 0 0 0 0 0 0 0 0 0 -0 -0 -0 -0 -0 -0 -0 -0 -0 -0 -0 -0 -0 -0 -0 -0 -0 -0 -0 -0 -0 -0 -0 -0 -0 -0 -0 -0 nan
nan 0 0 0 0 0 0 0 0 0 0 0 0 0 0 0 0 0 0 0 0 0 0 -0 -0 -0 -0 -0 -0 -0 -0 -0 -0 -0 -0 -0 -0 -0 -0 -0 -0 -0 -0 -0 -0 -0 -0 -0 -0 -0 -0 nan
nan 0 0 0 0 0 0 0 0 0 0 0 0 0 0 0 -0 0 0 0 0 0 0 -0 -0 -0 -0 -0 -0 -0 -0 -0 -0 -0 -0 -0 -0 -0 -0 -0 -0 -0 -0 -0 -0 -0 -0 -0 -0 -0 -0 nan
nan 0 0 0 0 0 0 0 0 0 0 0 0 0 0 0 0 0 0 0 0 0 0 -0 -0 -0 -0 -0 -0 -0 -0 -0 -0 -0 -0 -0 -0 -0 -0 -0 -0 -0 -0 -0 -1 -1 -1 -0 -1 -1 -1 nan
nan 0 0 0 0 0 0 0 0 0 0 0 0 0 0 0 0 0 0 0 0 0 0 0 0 -0 -0 -0 -0 -0 -0 -0 -0 -0 -0 -0 -0 -0 -0 -0 -0 -0 -0 -0 -0 -0 -1 -0 -0 -1 -1 nan
nan 0 0 0 0 0 0 0 0 0 0 0 0 0 0 0 0 0 0 0 0 0 0 0 0 0 -0 -0 -0 -0 -0 -0 -0 -0 -0 -0 -0 -0 -0 -0 -0 -0 -0 -0 -0 -0 -0 -0 -0 -0 -1 nan
nan 0 0 0 0 0 0 0 0 0 0 0 0 0 0 0 0 0 0 0 0 0 0 0 0 0 -0 -0 -0 -0 -0 -0 -0 -0 -0 -0 -0 -0 -0 -0 -0 -0 -0 -0 -0 -0 -0 -0 -0 -0 -0 nan
nan 0 0 0 0 0 0 0 0 0 0 0 0 0 0 0 0 0 0 0 0 0 0 0 0 0 -0 -0 -0 -0 -0 -0 -0 -0 -0 -0 -0 -0 -0 -0 -0 -0 -0 -1 -1 -1 -0 -0 -0 -0 -0 nan
nan 0 0 0 0 0 0 0 0 0 0 0 0 0 0 0 0 0 0 0 0 0 0 0 0 0 -0 -0 -0 -0 -0 -0 -0 -0 -0 -0 -0 -0 -0 -0 -0 -0 -1 -1 -1 -1 -1 -1 -1 -1 -1 nan
nan 0 0 0 0 0 0 0 0 0 0 0 0 0 0 0 0 0 0 0 0 0 0 0 0 0 0 -0 -0 -0 -0 -0 -0 -0 -0 -0 -0 -0 -0 -0 -0 -0 -0 -0 -1 -1 -1 -1 -1 -1 -1 nan
nan 0 0 0 0 0 0 0 0 0 0 0 0 0 0 0 0 0 0 0 0 0 0 0 0 0 0 0 -0 -0 -0 -0 -0 -0 -0 -0 -0 -0 -0 -0 -0 -0 -0 -0 -0 -1 -1 -1 -1 -1 -1 nan
nan 0 0 0 0 0 0 0 0 0 0 0 0 0 0 0 0 0 0 0 0 0 0 0 0 0 0 0 -0 -0 -0 -0 -0 -0 -0 -0 -0 -0 -0 -0 -0 -0 -0 -0 -0 -0 -1 -1 -1 -1 -1 nan
nan 0 0 0 0 0 0 1 0 0 0 0 0 0 0 0 0 0 0 0 0 0 0 0 0 0 0 0 -0 -0 -0 -0 -0 -0 -0 -0 -0 -0 -0 -0 -0 -0 -0 -0 -0 -0 -0 -1 -1 -1 -1 nan
nan 0 0 0 1 1 1 1 0 0 0 0 0 0 0 0 0 0 0 0 0 0 0 0 0 0 0 0 -0 -0 -0 -0 -0 -0 -0 -0 -0 -0 -0 -0 -0 -0 -0 -0 -0 -0 -0 -0 -0 -0 -1 nan
nan 1 0 1 1 1 1 0 0 0 -0 -0 0 0 0 0 0 0 0 0 0 0 0 0 0 0 0 0 0 -0 -0 -0 -0 -0 -0 -0 -0 -0 -0 -0 -0 -0 -0 -0 -0 -0 -0 -0 -0 -0 -0 nan
nan 1 1 1 1 1 1 0 0 -0 -0 0 0 0 0 0 0 0 0 0 0 0 0 0 0 0 0 0 0 -0 -0 -0 -0 -0 -0 -0 -0 -0 -0 -0 -0 -0 -0 -0 -0 -0 -0 -0 -0 -0 -0 nan
nan 1 1 1 1 1 0 -0 -0 -1 -0 0 0 0 0 0 0 0 0 0 0 0 0 0 0 0 0 0 0 -0 -0 -0 -0 -0 -0 -0 -0 -0 -0 -0 -0 -0 -0 -0 -0 -0 -0 -0 -0 -0 -0 nan
nan 0 -0 0 1 -0 -1 -1 -1 -0 0 0 0 0 0 0 0 0 0 0 0 0 0 0 0 0 0 0 0 0 -0 -0 -0 -0 -0 -0 -0 -0 -0 -0 -0 -0 -0 -1 -1 -1 -1 -1 -1 -0 -0 nan
nan -1 -1 -0 -0 -1 -1 -1 0 0 0 0 0 0 0 0 0 0 0 0 0 0 0 0 0 0 0 0 0 0 0 -0 0 -0 -0 -0 -0 -0 -0 -0 -0 -0 -0 -1 -1 -1 -2 -2 -2 -1 -1 nan
nan -1 -1 -0 -1 -1 -0 0 1 0 0 0 0 0 0 0 0 0 0 0 0 0 0 0 0 0 0 0 0 0 0 0 0 0 -0 -0 -0 -0 -0 -0 -0 -0 -0 -0 -0 -0 -1 -1 -1 -2 -1 nan
nan -0 -0 0 0 1 1 1 1 1 1 0 0 0 0 0 0 0 0 0 0 1 0 0 0 0 0 0 0 0 0 0 0 0 -0 0 -0 -0 -0 -0 -0 -0 0 0 0 -0 -0 -0 -0 -0 -0 nan
nan 0 1 1 1 1 1 0 0 1 0 -0 -0 -0 -0 -0 -0 0 0 0 1 1 1 1 0 0 0 0 0 0 0 0 0 0 0 0 0 -0 -0 -0 -0 -0 -0 0 0 0 -0 -0 0 -0 0 nan
nan 1 1 1 1 1 1 -0 -0 -0 -1 -1 -1 -1 -0 -0 0 1 1 1 1 1 1 1 1 1 0 0 0 0 -0 0 -0 -0 0 0 0 0 0 -0 -0 -0 0 -0 0 0 -0 -0 -0 0 0 nan
nan 1 1 0 1 0 -0 -1 -1 -2 -1 -1 0 0 0 0 1 1 1 1 1 1 1 1 1 1 0 0 0 0 0 -0 -0 -0 0 0 0 0 0 0 -0 -0 0 0 -0 0 -0 -1 -0 0 0 nan
nan nan nan nan nan nan nan nan nan nan nan nan nan nan nan nan nan nan nan nan nan nan nan nan nan nan nan nan nan nan nan nan nan nan nan nan nan nan nan nan nan nan nan nan nan nan nan nan nan nan nan nan
Wind_Speed
7 6 5 5 4 3 3 3 4 4 5 4 4 4 3 3 3 3 4 4 4 4 5 5 5 5 5 5 5 5 5 5 6 6 7 7 8 8 9 9 10 10 11 12 12 13 13 13 13 13 13 12
8 7 6 5 5 4 5 5 6 6 6 5 5 4 4 3 3 3 3 3 3 3 4 4 4 4 4 4 5 5 5 5 5 6 6 7 7 8 8 9 9 10 10 11 11 12 12 13 13 13 13 13
9 7 7 6 6 6 7 7 7 7 6 6 5 5 4 4 3 3 2 2 2 2 2 2 2 2 3 3 4 4 5 6 6 7 7 8 8 8 9 9 10 10 11 11 11 11 11 12 12 12 13 13
9 8 8 7 8 8 9 9 8 8 7 6 6 5 5 4 4 3 3 3 2 2 1 1 0 1 2 3 4 5 6 6 7 7 8 8 9 9 10 10 10 11 11 11 12 12 12 12 12 12 12 12
10 9 9 9 10 10 10 10 9 8 8 7 6 6 5 5 5 4 4 3 3 2 1 1 1 2 3 4 5 5 6 7 7 8 8 8 9 9 9 10 10 11 11 11 12 12 12 12 12 12 12 12
11 10 11 12 12 12 12 11 10 9 8 7 7 6 6 5 5 5 4 3 3 2 2 1 2 2 3 4 5 5 6 7 7 7 8 8 8 9 9 9 9 9 10 10 11 11 11 11 11 12 12 12
12 12 13 14 14 13 13 12 11 10 9 8 8 7 6 6 6 5 5 4 4 3 3 2 2 3 4 4 5 6 6 7 7 7 8 8 8 9 9 8 8 9 9 9 9 10 10 11 11 11 12 13
13 14 15 15 15 14 13 12 11 11 10 9 9 8 8 7 7 6 6 5 4 4 3 3 3 4 4 5 5 5 6 6 7 7 8 8 9 9 9 9 9 10 10 10 10 10 10 11 12 12 12 13
15 16 16 16 16 15 14 13 13 12 11 11 10 10 9 8 8 7 6 5 5 4 4 4 4 4 4 4 5 5 5 6 6 7 7 8 9 9 9 10 10 10 11 11 11 11 11 11 12 12 12 13
17 17 18 17 17 16 15 14 14 13 13 12 11 10 10 9 8 7 6 5 5 4 4 4 4 4 4 4 4 5 5 6 6 7 7 8 9 9 10 10 11 11 12 12 12 12 13 13 13 13 13 13
18 19 18 18 17 17 16 15 15 14 13 12 11 11 10 9 8 7 6 5 5 5 4 4 4 4 4 4 4 5 5 6 7 7 8 8 9 10 10 11 12 12 13 13 13 14 14 14 14 14 14 14
19 20 19 19 18 18 17 16 15 14 13 12 11 11 10 9 8 7 6 6 5 5 4 4 4 4 4 4 4 5 5 6 7 7 8 8 9 10 11 11 12 12 13 14 14 15 15 15 15 15 15 16
21 21 20 20 19 19 18 17 16 15 13 13 11 11 10 9 9 8 7 7 6 5 5 5 4 4 4 4 4 5 5 6 7 8 8 9 9 10 11 11 12 12 13 14 14 15 16 16 16 16 16 17
22 22 22 21 20 19 18 18 16 15 14 13 12 12 11 10 10 9 8 7 6 6 5 4 3 3 3 3 4 4 5 6 7 7 8 9 9 10 11 11 12 13 13 14 14 15 16 17 17 17 17 18
23 23 22 21 21 20 19 18 17 16 15 14 13 12 12 11 10 9 8 7 7 6 5 4 3 3 2 3 3 4 5 6 6 7 7 8 9 10 10 11 12 13 14 14 15 15 16 16 17 17 17 18
23 23 23 22 21 21 20 19 18 17 16 15 14 13 12 11 10 9 9 8 7 6 5 4 3 2 2 2 3 3 4 5 5 6 7 7 8 9 10 10 11 12 13 14 15 16 16 17 17 17 18 18
24 24 24 23 23 22 21 20 19 17 16 15 14 13 13 11 11 10 9 9 8 7 6 5 4 3 2 2 2 3 3 4 5 5 6 7 8 9 10 11 11 12 13 14 15 16 17 18 18 18 19 19
25 25 25 25 25 24 22 21 20 18 17 16 15 14 13 12 12 11 10 9 8 8 7 6 5 3 2 2 2 2 3 3 4 5 6 7 8 9 9 10 11 12 13 14 15 16 17 18 19 20 20 20
26 26 26 27 26 25 24 22 21 20 18 17 16 15 14 13 13 12 11 10 10 9 8 7 5 4 2 1 1 2 2 3 4 4 5 7 8 9 10 11 12 13 14 15 16 17 18 19 20 20 20 21
26 27 28 28 27 26 25 24 23 21 20 18 17 16 15 14 13 13 12 12 11 10 8 7 5 3 2 1 1 1 2 3 4 5 6 7 9 10 11 12 13 14 15 16 17 18 19 20 21 21 21 21
27 28 29 29 28 27 26 25 24 23 21 20 19 17 16 15 15 15 14 13 12 11 9 7 6 4 3 2 1 1 2 3 4 5 7 8 9 11 12 14 15 16 16 17 18 19 19 20 21 22 22 21
29 29 29 29 29 28 27 27 25 24 23 21 20 18 17 17 16 16 16 15 14 12 10 8 7 5 3 2 2 2 3 4 5 7 8 9 11 12 13 15 16 17 18 19 19 20 21 21 22 22 22 22
30 30 30 31 31 30 29 28 27 26 25 23 21 19 18 18 18 18 18 17 15 13 11 10 8 6 5 4 4 4 4 5 6 8 9 11 12 14 15 16 17 18 19 20 21 21 22 23 23 22 23 23
32 32 32 33 33 32 32 30 29 28 26 24 22 21 20 20 20 20 20 19 17 15 13 11 10 8 7 6 6 6 7 7 9 9 11 12 14 15 16 18 19 20 21 22 23 24 26 26 24 23 24 22
35 35 35 36 35 34 33 32 31 29 27 25 24 22 21 22 22 22 21 20 19 17 15 13 12 11 10 9 9 9 9 10 11 11 13 14 15 16 18 19 20 21 22 23 22 23 25 26 26 27 26 21
38 38 37 37 36 34 33 33 31 28 27 26 25 24 24 24 24 24 23 22 21 19 17 16 15 14 13 12 11 11 12 12 13 13 14 15 17 18 19 21 21 22 22 21 21 23 20 16 19 26 25 20
41 39 38 36 35 33 32 31 29 27 27 27 26 27 27 27 27 26 25 24 23 21 20 19 18 16 16 15 14 14 14 14 15 15 15 16 18 19 21 22 23 23 22 21 23 21 16 12 14 19 17 16
42 40 38 36 35 33 31 31 30 28 29 29 30 31 31 30 29 27 26 25 25 24 22 21 20 19 19 18 17 17 17 16 16 17 17 18 19 20 22 23 24 24 24 24 23 17 14 15 14 10 9 18
43 41 40 38 37 35 34 34 33 32 33 34 35 35 34 32 30 27 26 26 26 26 25 24 23 22 22 21 20 20 19 19 18 18 19 19 20 21 22 23 25 26 25 25 24 21 17 13 11 11 15 24
45 44 43 42 41 39 39 38 38 37 37 37 37 36 34 32 30 28 28 28 27 27 27 27 26 25 24 23 22 22 22 21 21 21 21 21 22 22 22 23 25 27 26 26 26 25 22 19 19 21 23 22
48 47 46 44 44 43 42 41 40 39 37 38 37 35 32 31 30 30 30 30 29 29 29 29 29 27 26 25 25 24 24 24 23 23 23 23 24 25 25 25 26 27 27 28 28 27 25 25 25 25 25 23
Wind_Direction
231 235 237 241 243 243 230 211 190 175 168 158 152 147 136 128 118 111 108 101 99 95 91 85 79 74 67 63 56 47 38 29 22 16 12 9 7 5 4 2 1 359 359 358 358 357 356 356 354 353 353 350
234 236 237 237 231 222 209 196 188 180 174 169 165 163 155 151 142 128 121 110 104 94 89 82 74 65 57 48 38 30 21 15 10 5 1 359 357 356 355 353 353 352 352 352 352 352 352 352 352 353 354 354
234 235 234 230 220 208 200 193 189 184 180 179 176 175 173 169 165 157 149 139 130 119 105 92 77 60 43 30 19 11 6 3 0 360 357 355 353 351 350 348 347 346 345 345 345 346 346 347 347 348 348 351
230 229 228 220 212 202 197 194 190 190 188 189 187 186 185 183 181 177 176 170 168 163 155 138 37 9 5 1 360 357 357 356 355 354 354 353 352 349 347 345 343 341 340 338 338 338 339 340 340 339 341 345
225 222 218 210 205 199 197 195 194 195 195 196 197 196 194 192 189 187 189 189 190 196 216 251 318 335 344 346 347 348 347 347 347 346 346 345 346 345 343 342 340 337 335 335 335 335 336 336 337 338 341 343
220 216 210 205 202 199 198 198 199 200 201 203 203 203 200 198 196 197 199 201 208 215 230 260 298 320 330 334 335 336 336 337 338 338 338 340 340 341 342 340 337 335 336 336 337 337 338 338 341 344 347 348
217 213 208 204 201 200 200 200 202 203 205 207 208 206 204 203 202 203 205 206 212 220 233 263 288 307 317 324 327 328 330 332 333 334 336 338 339 339 339 336 335 336 337 339 339 339 340 342 345 348 350 350
215 212 208 205 202 202 202 202 203 204 206 207 207 206 205 206 207 208 210 214 222 235 254 274 289 306 315 320 325 328 332 333 333 335 336 336 336 334 333 333 336 339 339 339 339 340 342 343 344 345 347 348
216 212 209 207 204 204 204 204 204 204 206 206 206 206 208 210 213 217 221 228 236 248 263 277 290 302 309 316 322 329 333 333 335 337 337 335 334 333 333 336 338 340 341 340 339 340 341 342 342 342 343 343
216 212 210 207 206 205 204 205 204 205 206 206 208 208 212 215 219 224 228 235 243 252 264 275 288 295 302 312 316 324 329 332 337 339 341 339 339 340 341 342 342 343 344 343 342 341 341 342 342 341 340 340
215 212 210 207 206 206 206 206 205 206 207 207 210 212 216 219 223 228 232 240 245 253 262 269 278 286 295 303 309 318 324 330 336 340 343 344 346 347 348 348 346 345 344 344 343 342 341 341 341 340 339 338
215 212 210 208 207 207 206 207 206 207 208 209 212 215 219 222 227 232 235 241 243 250 253 258 266 274 286 297 310 318 325 332 336 339 343 345 348 350 351 350 349 347 344 343 342 340 338 337 338 338 337 335
216 213 210 208 207 207 206 206 207 208 208 211 214 218 223 225 228 231 233 236 239 243 245 251 259 270 286 301 312 323 330 334 336 339 342 344 348 350 350 350 349 348 346 343 341 338 336 335 335 335 335 333
216 213 211 209 207 207 207 206 207 207 209 212 215 219 223 224 227 227 228 230 230 233 235 242 250 266 288 305 317 329 332 334 338 339 341 344 346 348 349 348 348 348 346 344 341 338 336 334 334 334 333 332
217 214 212 209 208 208 207 207 208 208 210 213 216 220 222 223 224 223 224 223 224 223 225 232 240 260 283 306 320 330 330 335 338 338 342 344 346 348 349 348 347 347 346 344 341 338 336 335 334 333 332 331
217 214 212 210 209 209 208 208 209 210 212 215 219 221 222 223 221 220 220 218 218 217 218 223 229 244 266 293 312 323 328 331 333 337 341 343 347 349 350 351 349 348 346 345 343 340 338 336 336 335 334 333
218 216 214 212 209 209 209 209 211 212 214 218 220 221 222 221 219 218 216 214 213 211 209 209 212 222 241 272 297 314 323 328 335 341 344 347 350 351 353 353 351 349 348 346 344 342 341 339 339 338 336 335
219 217 216 214 211 210 209 210 212 213 216 218 220 221 222 221 219 217 214 212 208 203 200 199 203 211 226 258 293 312 325 336 348 353 354 355 355 356 356 355 353 352 352 350 349 348 346 344 343 341 340 337
220 218 218 216 214 211 210 210 211 214 216 218 220 221 222 221 220 218 215 210 204 200 197 198 202 208 220 253 296 320 338 347 356 0 359 357 356 358 357 355 356 355 356 355 354 352 350 349 347 345 342 340
222 220 219 218 216 214 212 211 211 213 215 218 221 222 223 223 222 220 216 210 204 200 199 201 203 206 215 233 292 331 347 349 356 360 358 356 356 357 356 356 356 355 356 356 354 354 352 350 348 346 345 343
223 221 220 219 217 215 214 213 213 213 216 219 222 223 224 225 224 221 217 211 206 202 202 204 205 207 212 226 278 328 345 348 350 350 351 353 351 353 353 351 352 352 352 351 351 351 350 349 347 346 345 344
224 222 221 220 219 218 216 216 215 215 218 221 222 224 225 226 225 223 218 214 211 206 206 205 208 213 218 239 274 305 324 336 338 340 343 345 346 346 346 346 347 346 345 345 346 346 346 345 344 344 343 342
224 222 222 222 221 220 219 218 217 218 221 222 223 224 226 228 227 225 221 217 215 212 211 210 212 218 226 248 271 289 304 316 321 329 333 336 338 338 339 340 339 340 340 340 339 340 342 341 341 341 340 340
222 221 222 222 222 222 221 220 220 221 222 222 224 226 228 231 231 228 224 221 219 217 217 217 218 224 232 248 262 278 291 300 307 315 321 326 328 330 332 332 333 336 336 336 337 338 338 338 337 336 337 336
222 223 224 224 223 223 224 224 223 223 224 224 226 227 230 234 233 231 227 224 223 222 222 223 225 229 235 245 256 270 280 288 296 303 310 316 319 321 323 325 328 330 331 336 338 336 335 334 332 332 335 330
227 228 229 228 228 227 227 228 227 226 228 228 228 229 231 234 234 233 231 228 227 226 227 228 231 234 238 245 253 262 271 279 287 294 302 308 311 314 316 318 320 323 327 330 329 331 334 334 329 326 326 322
230 232 234 234 234 233 233 235 234 232 233 234 233 232 231 232 233 234 234 233 232 231 232 233 236 238 242 245 250 257 264 272 279 286 294 300 305 309 311 312 313 316 319 320 324 329 329 324 320 316 315 313
232 234 236 237 237 236 236 238 237 234 234 234 234 234 232 232 234 235 236 237 238 238 237 238 239 241 244 247 250 255 259 266 274 280 288 294 299 302 305 307 308 310 312 313 318 320 316 317 317 308 297 303
233 233 234 235 236 236 236 238 237 234 233 232 233 235 236 236 237 237 238 239 241 243 243 243 243 243 246 249 252 255 259 264 269 275 283 289 292 294 297 299 300 302 305 307 308 307 307 308 301 296 298 305
232 233 234 234 235 235 235 236 236 234 233 233 235 237 239 241 243 242 241 241 243 245 246 247 247 247 248 252 254 257 260 263 266 271 278 282 283 286 289 290 291 295 299 300 300 300 300 295 291 294 298 302
232 233 234 236 237 238 238 239 239 239 238 239 241 243 244 246 248 248 247 246 246 246 247 248 250 250 252 254 256 259 261 263 266 270 273 275 276 279 281 281 284 289 292 293 293 294 295 294 292 291 292 292
Height
1543 1542 1542 1542 1541 1542 1542 1542 1543 1543 1543 1543 1543 1543 1542 1542 1542 1542 1541 1541 1541 1541 1541 1540 1540 1541 1541 1541 1541 1541 1541 1540 1540 1539 1539 1538 1537 1537 1536 1535 1535 1534 1534 1534 1533 1533 1532 1532 1532 1531 1531 1531
1542 1542 1541 1541 1541 1541 1541 1542 1543 1543 1543 1543 1543 1542 1542 1541 1541 1541 1541 1541 1540 1540 1540 1540 1540 1540 1540 1540 1540 1540 1540 1540 1540 1539 1539 1538 1537 1537 1536 1535 1534 1534 1534 1533 1533 1533 1532 1532 1531 1531 1531 1530
1541 1540 1540 1540 1540 1541 1541 1542 1542 1543 1542 1542 1542 1542 1541 1541 1541 1540 1540 1540 1540 1540 1540 1540 1540 1540 1540 1540 1540 1540 1539 1539 1539 1538 1538 1537 1537 1536 1535 1535 1534 1534 1533 1533 1533 1532 1532 1531 1531 1531 1530 1530
1539 1539 1539 1540 1540 1540 1541 1542 1542 1542 1542 1542 1541 1541 1540 1540 1540 1540 1540 1540 1540 1540 1540 1540 1540 1540 1540 1539 1539 1539 1539 1538 1538 1538 1537 1536 1536 1535 1535 1535 1534 1534 1533 1532 1532 1532 1531 1531 1531 1530 1530 1529
1538 1538 1539 1539 1540 1540 1541 1541 1541 1541 1541 1541 1540 1540 1540 1539 1539 1539 1539 1539 1539 1539 1539 1539 1539 1539 1539 1539 1539 1538 1538 1538 1538 1537 1537 1536 1536 1536 1535 1535 1534 1533 1533 1532 1532 1531 1531 1531 1530 1530 1529 1529
1537 1537 1538 1538 1539 1539 1540 1540 1540 1540 1540 1540 1540 1539 1539 1538 1538 1538 1538 1539 1539 1539 1539 1539 1539 1539 1538 1538 1538 1538 1538 1538 1537 1537 1537 1536 1536 1536 1535 1535 1534 1533 1533 1532 1531 1531 1531 1530 1530 1529 1529 1529
1536 1536 1537 1538 1538 1538 1539 1539 1539 1539 1539 1539 1539 1538 1538 1538 1537 1538 1538 1538 1538 1538 1538 1538 1538 1538 1538 1538 1538 1537 1537 1537 1537 1536 1536 1536 1536 1535 1535 1534 1534 1533 1532 1532 1531 1531 1530 1530 1529 1529 1529 1528
1535 1535 1536 1537 1537 1537 1537 1538 1538 1538 1538 1538 1537 1537 1537 1537 1537 1537 1537 1537 1537 1537 1537 1537 1537 1537 1537 1537 1537 1537 1536 1536 1536 1536 1535 1535 1535 1534 1534 1534 1533 1532 1532 1531 1531 1530 1530 1529 1529 1528 1528 1528
1534 1534 1535 1535 1536 1536 1536 1536 1536 1537 1537 1536 1536 1536 1536 1536 1536 1536 1536 1536 1536 1536 1536 1536 1536 1536 1536 1536 1536 1536 1536 1536 1535 1535 1535 1534 1534 1534 1533 1533 1532 1532 1531 1530 1530 1530 1529 1529 1528 1528 1528 1527
1532 1533 1534 1534 1534 1534 1535 1535 1535 1535 1535 1535 1535 1535 1535 1535 1535 1535 1535 1535 1535 1535 1535 1535 1535 1535 1535 1535 1535 1535 1535 1534 1534 1534 1534 1534 1533 1533 1533 1532 1532 1531 1531 1530 1529 1529 1528 1528 1528 1528 1527 1527
1530 1531 1532 1532 1533 1533 1533 1533 1534 1534 1534 1534 1534 1534 1534 1534 1534 1534 1534 1534 1534 1533 1533 1533 1533 1534 1533 1533 1533 1533 1533 1533 1533 1533 1533 1533 1532 1532 1532 1531 1531 1530 1530 1529 1529 1528 1528 1527 1527 1527 1526 1526
1529 1529 1530 1531 1531 1532 1532 1532 1532 1532 1532 1532 1532 1532 1532 1532 1532 1532 1532 1532 1532 1532 1532 1532 1532 1532 1532 1532 1532 1532 1532 1532 1531 1531 1531 1531 1531 1531 1530 1530 1530 1529 1529 1528 1528 1527 1527 1527 1527 1526 1526 1525
1527 1527 1528 1529 1530 1530 1530 1530 1530 1530 1531 1531 1531 1531 1531 1531 1531 1531 1531 1531 1531 1531 1531 1531 1531 1531 1531 1530 1530 1530 1530 1530 1530 1530 1530 1530 1529 1529 1529 1529 1529 1528 1528 1528 1527 1527 1526 1526 1526 1526 1525 1524
1525 1526 1526 1527 1528 1528 1529 1529 1529 1529 1529 1529 1529 1529 1529 1530 1530 1530 1529 1529 1529 1529 1529 1529 1529 1529 1529 1529 1529 1529 1529 1529 1529 1528 1528 1528 1528 1528 1528 1528 1527 1527 1527 1526 1526 1526 1525 1525 1525 1524 1524 1523
1523 1524 1525 1525 1526 1526 1527 1527 1527 1527 1527 1527 1527 1528 1528 1528 1528 1528 1528 1528 1528 1528 1528 1528 1528 1528 1528 1528 1528 1528 1527 1527 1527 1527 1527 1527 1527 1527 1526 1526 1526 1525 1525 1525 1525 1524 1524 1524 1523 1523 1523 1522
1521 1522 1523 1523 1524 1524 1525 1525 1525 1525 1525 1525 1526 1526 1526 1526 1526 1526 1526 1526 1526 1526 1526 1526 1526 1526 1526 1526 1526 1526 1526 1526 1526 1526 1525 1525 1525 1525 1525 1525 1525 1524 1524 1524 1523 1523 1522 1522 1522 1522 1521 1520
1519 1520 1520 1521 1522 1522 1523 1523 1523 1523 1523 1523 1524 1524 1524 1524 1524 1524 1524 1524 1524 1525 1525 1525 1525 1525 1525 1525 1525 1525 1525 1525 1524 1524 1524 1524 1524 1524 1524 1524 1524 1523 1523 1523 1522 1522 1521 1521 1520 1520 1519 1518
1516 1517 1518 1519 1519 1520 1520 1521 1521 1521 1521 1522 1522 1522 1522 1522 1522 1522 1522 1523 1523 1523 1523 1523 1524 1524 1524 1524 1524 1523 1523 1523 1523 1523 1523 1523 1523 1523 1523 1522 1522 1522 1522 1521 1521 1520 1519 1519 1518 1518 1517 1516
1514 1515 1516 1517 1517 1518 1518 1518 1519 1519 1519 1520 1520 1520 1520 1520 1520 1520 1520 1521 1521 1521 1522 1522 1522 1522 1522 1522 1522 1522 1522 1522 1522 1522 1522 1522 1521 1521 1521 1521 1520 1520 1520 1519 1519 1518 1517 1517 1516 1515 1515 1514
1512 1513 1514 1514 1515 1515 1516 1516 1516 1517 1517 1517 1517 1517 1518 1518 1518 1518 1518 1519 1519 1520 1520 1520 1520 1520 1520 1520 1520 1520 1520 1520 1520 1520 1520 1520 1519 1519 1519 1518 1518 1518 1518 1517 1517 1516 1516 1515 1514 1513 1512 1512
1509 1510 1511 1512 1513 1513 1513 1514 1514 1514 1514 1515 1515 1515 1515 1515 1516 1516 1516 1517 1517 1518 1518 1518 1518 1518 1518 1518 1518 1518 1518 1518 1518 1518 1518 1518 1517 1517 1516 1516 1516 1516 1515 1515 1515 1514 1514 1513 1512 1511 1510 1510
1507 1508 1509 1510 1510 1510 1510 1511 1511 1511 1512 1512 1513 1513 1513 1513 1513 1514 1514 1515 1515 1516 1516 1516 1516 1516 1516 1516 1516 1516 1516 1516 1516 1516 1515 1515 1515 1514 1514 1514 1513 1513 1513 1512 1512 1512 1511 1510 1510 1509 1509 1508
1504 1505 1506 1506 1507 1507 1507 1508 1508 1508 1509 1509 1510 1510 1510 1511 1511 1512 1512 1513 1513 1513 1513 1514 1514 1514 1514 1513 1513 1513 1513 1514 1513 1513 1513 1512 1512 1512 1512 1511 1511 1511 1510 1509 1509 1509 1508 1508 1507 1507 1506 1506
1500 1501 1501 1502 1502 1502 1503 1504 1505 1506 1506 1507 1507 1507 1508 1508 1509 1510 1510 1510 1511 1511 1511 1511 1511 1511 1511 1511 1511 1511 1511 1511 1511 1511 1510 1510 1510 1509 1509 1508 1508 1507 1507 1506 1505 1505 1504 1504 1504 1504 1504 1503
1495 1496 1497 1497 1498 1499 1500 1501 1502 1503 1504 1504 1504 1505 1505 1506 1506 1507 1508 1508 1508 1508 1508 1509 1509 1509 1509 1509 1509 1509 1508 1508 1508 1508 1508 1507 1507 1507 1506 1505 1505 1505 1504 1503 1503 1502 1501 1500 1500 1500 1500 1500
1491 1492 1493 1494 1495 1497 1498 1498 1499 1500 1501 1502 1502 1503 1503 1503 1504 1505 1505 1506 1506 1506 1506 1506 1506 1506 1506 1506 1506 1506 1506 1505 1505 1505 1505 1504 1504 1504 1503 1502 1502 1502 1502 1502 1502 1501 1500 1499 1497 1496 1496 1496
1487 1489 1491 1492 1494 1495 1496 1496 1497 1498 1499 1499 1500 1500 1500 1500 1501 1502 1502 1503 1503 1503 1503 1503 1503 1504 1504 1504 1503 1503 1503 1502 1502 1502 1502 1501 1501 1500 1500 1499 1499 1499 1500 1500 1499 1499 1498 1499 1497 1495 1493 1492
1485 1487 1489 1490 1491 1492 1493 1493 1494 1495 1495 1496 1496 1496 1496 1497 1498 1499 1500 1500 1500 1500 1501 1501 1501 1501 1500 1500 1500 1500 1500 1499 1499 1499 1499 1498 1498 1497 1497 1496 1495 1496 1496 1497 1497 1497 1497 1496 1495 1494 1492 1490
1483 1485 1485 1486 1487 1488 1488 1489 1489 1490 1491 1492 1491 1491 1493 1494 1495 1497 1497 1498 1498 1497 1498 1498 1498 1498 1497 1497 1497 1497 1496 1496 1496 1496 1495 1495 1495 1494 1494 1493 1492 1492 1493 1493 1494 1495 1495 1494 1492 1491 1490 1488
1479 1480 1480 1481 1482 1482 1483 1484 1484 1485 1487 1488 1488 1489 1491 1492 1493 1494 1495 1495 1495 1494 1495 1495 1495 1495 1494 1494 1494 1493 1493 1493 1493 1493 1492 1492 1491 1491 1491 1491 1489 1489 1489 1489 1489 1490 1491 1491 1490 1489 1488 1486
1474 1475 1476 1477 1478 1478 1479 1480 1481 1483 1485 1486 1486 1487 1489 1490 1490 1491 1491 1491 1491 1491 1491 1491 1491 1491 1491 1491 1490 1490 1490 1490 1490 1490 1489 1489 1488 1488 1487 1487 1486 1486 1485 1485 1485 1485 1486 1486 1486 1485 1485 1484